| time (UTC) | temp F | wind direction | speed MPH | gust MPH | rain 1hr in | rain 24hr in | rain mn in | humidity % | barometer mb |
| 20260903223028 | 80 | 315 | 3.0 | 7.0 | 0.00 | 0.00 | 0.00 | 53 | 1012.7 |
| 20260903222528 | 80 | 315 | 2.0 | 8.0 | 0.00 | 0.00 | 0.00 | 54 | 1012.8 |
| 20260903222008 | 80 | 315 | 3.0 | 9.0 | 0.00 | 0.00 | 0.00 | 53 | 1012.9 |
| 20260903221508 | 80 | 270 | 2.0 | 6.0 | 0.00 | 0.00 | 0.00 | 53 | 1012.9 |
| 20260903221028 | 80 | 248 | 2.0 | 7.0 | 0.00 | 0.00 | 0.00 | 54 | 1013.0 |
| 20260903220508 | 79 | 315 | 3.0 | 8.0 | 0.00 | 0.00 | 0.00 | 54 | 1013.3 |
| 20260903220023 | 78 | 315 | 2.0 | 6.0 | 0.00 | 0.00 | 0.00 | 56 | 1013.3 |
| 20260903215508 | 78 | 315 | 2.0 | 4.0 | 0.00 | 0.00 | 0.00 | 56 | 1013.3 |
| 20260903215008 | 77 | 248 | 2.0 | 6.0 | 0.00 | 0.00 | 0.00 | 57 | 1013.4 |
| 20260903214508 | 77 | 315 | 2.0 | 5.0 | 0.00 | 0.00 | 0.00 | 57 | 1013.4 |
| 20260903214006 | 77 | 315 | 2.0 | 5.0 | 0.00 | 0.00 | 0.00 | 57 | 1013.4 |
| 20260903213503 | 77 | 315 | 2.0 | 7.0 | 0.00 | 0.00 | 0.00 | 57 | 1013.5 |
| 20260903213003 | 77 | 270 | 1.0 | 3.0 | 0.00 | 0.00 | 0.00 | 57 | 1013.5 |
| 20260903212508 | 77 | 315 | 1.0 | 4.0 | 0.00 | 0.00 | 0.00 | 57 | 1013.5 |
| 20260903212008 | 77 | 315 | 1.0 | 3.0 | 0.00 | 0.00 | 0.00 | 57 | 1013.3 |
| 20260903211503 | 76 | 0 | 1.0 | 3.0 | 0.00 | 0.00 | 0.00 | 58 | 1013.4 |
| 20260903211008 | 76 | 0 | 1.0 | 4.0 | 0.00 | 0.00 | 0.00 | 59 | 1013.4 |
| 20260903210503 | 76 | 45 | 1.0 | 4.0 | 0.00 | 0.00 | 0.00 | 60 | 1013.4 |
| 20260903210010 | 76 | 23 | 2.0 | 5.0 | 0.00 | 0.00 | 0.00 | 60 | 1013.4 |
| 20260903205530 | 76 | 45 | 2.0 | 6.0 | 0.00 | 0.00 | 0.00 | 60 | 1013.4 |
| 20260903205025 | 76 | 23 | 2.0 | 5.0 | 0.00 | 0.00 | 0.00 | 60 | 1013.6 |
| 20260903204505 | 75 | 45 | 2.0 | 5.0 | 0.00 | 0.00 | 0.00 | 60 | 1013.6 |
| 20260903204025 | 75 | 45 | 2.0 | 5.0 | 0.00 | 0.00 | 0.00 | 61 | 1013.7 |
| 20260903203505 | 75 | 45 | 2.0 | 6.0 | 0.00 | 0.00 | 0.00 | 61 | 1013.6 |
| 20260903203010 | 75 | 23 | 2.0 | 4.0 | 0.00 | 0.00 | 0.00 | 60 | 1013.7 |
| 20260903202505 | 75 | 23 | 1.0 | 3.0 | 0.00 | 0.00 | 0.00 | 61 | 1013.7 |
| 20260903202010 | 75 | 45 | 2.0 | 3.0 | 0.00 | 0.00 | 0.00 | 61 | 1013.8 |
| 20260903201505 | 75 | 45 | 2.0 | 3.0 | 0.00 | 0.00 | 0.00 | 61 | 1013.9 |
| 20260903201009 | 75 | 45 | 2.0 | 4.0 | 0.00 | 0.00 | 0.00 | 60 | 1013.9 |
| 20260903200505 | 75 | 45 | 2.0 | 4.0 | 0.00 | 0.00 | 0.00 | 60 | 1014.0 |
| 20260903200008 | 75 | 45 | 2.0 | 4.0 | 0.00 | 0.00 | 0.00 | 59 | 1014.1 |
| 20260903195550 | 76 | 45 | 2.0 | 5.0 | 0.00 | 0.00 | 0.00 | 57 | 1014.0 |
| 20260903195005 | 77 | 45 | 2.0 | 4.0 | 0.00 | 0.00 | 0.00 | 56 | 1014.1 |
| 20260903194505 | 77 | 45 | 2.0 | 6.0 | 0.00 | 0.00 | 0.00 | 56 | 1014.0 |
| 20260903194010 | 77 | 45 | 2.0 | 4.0 | 0.00 | 0.00 | 0.00 | 57 | 1014.2 |
| 20260903193525 | 76 | 45 | 2.0 | 5.0 | 0.00 | 0.00 | 0.00 | 58 | 1014.2 |
| 20260903193005 | 76 | 45 | 2.0 | 4.0 | 0.00 | 0.00 | 0.00 | 57 | 1014.4 |
| 20260903192530 | 76 | 23 | 2.0 | 6.0 | 0.00 | 0.00 | 0.00 | 57 | 1014.5 |
| 20260903192005 | 76 | 23 | 1.0 | 5.0 | 0.00 | 0.00 | 0.00 | 57 | 1014.5 |
| 20260903191505 | 76 | 338 | 2.0 | 4.0 | 0.00 | 0.00 | 0.00 | 57 | 1014.4 |
| 20260903191005 | 76 | 45 | 1.0 | 3.0 | 0.00 | 0.00 | 0.00 | 57 | 1014.6 |
| 20260903190509 | 77 | 315 | 2.0 | 6.0 | 0.00 | 0.00 | 0.00 | 56 | 1014.6 |
| 20260903190025 | 77 | 315 | 2.0 | 5.0 | 0.00 | 0.00 | 0.00 | 56 | 1014.6 |
| 20260903185524 | 77 | 293 | 2.0 | 5.0 | 0.00 | 0.00 | 0.00 | 56 | 1014.6 |
| 20260903185009 | 77 | 0 | 2.0 | 7.0 | 0.00 | 0.00 | 0.00 | 56 | 1014.5 |
| 20260903184509 | 77 | 315 | 1.0 | 5.0 | 0.00 | 0.00 | 0.00 | 55 | 1014.5 |
| 20260903184010 | 77 | 315 | 1.0 | 5.0 | 0.00 | 0.00 | 0.00 | 54 | 1014.6 |
| 20260903183505 | 77 | 315 | 1.0 | 6.0 | 0.00 | 0.00 | 0.00 | 54 | 1014.6 |
| 20260903183045 | 77 | 225 | 1.0 | 3.0 | 0.00 | 0.00 | 0.00 | 55 | 1014.4 |
| 20260903182510 | 77 | 270 | 1.0 | 3.0 | 0.00 | 0.00 | 0.00 | 55 | 1014.5 |
| 20260903182024 | 76 | 225 | 1.0 | 3.0 | 0.00 | 0.00 | 0.00 | 56 | 1014.5 |
| 20260903181510 | 76 | 0.0 | 2.0 | 0.00 | 0.00 | 0.00 | 56 | 1014.5 | |
| 20260903181011 | 76 | 113 | 1.0 | 3.0 | 0.00 | 0.00 | 0.00 | 55 | 1014.5 |
| 20260903180505 | 76 | 135 | 1.0 | 5.0 | 0.00 | 0.00 | 0.00 | 55 | 1014.7 |
| 20260903180010 | 75 | 113 | 1.0 | 5.0 | 0.00 | 0.00 | 0.00 | 57 | 1014.8 |
| 20260903175505 | 75 | 135 | 1.0 | 3.0 | 0.00 | 0.00 | 0.00 | 58 | 1014.9 |
| 20260903175010 | 74 | 135 | 1.0 | 4.0 | 0.00 | 0.00 | 0.00 | 57 | 1015.0 |
| 20260903174531 | 74 | 135 | 1.0 | 3.0 | 0.00 | 0.00 | 0.00 | 58 | 1015.1 |
| 20260903174009 | 74 | 113 | 1.0 | 4.0 | 0.00 | 0.00 | 0.00 | 59 | 1015.1 |
| 20260903173510 | 73 | 135 | 1.0 | 2.0 | 0.00 | 0.00 | 0.00 | 59 | 1015.1 |
| 20260903173009 | 73 | 158 | 2.0 | 4.0 | 0.00 | 0.00 | 0.00 | 58 | 1015.2 |
| 20260903172509 | 73 | 113 | 1.0 | 3.0 | 0.00 | 0.00 | 0.00 | 60 | 1015.1 |
| 20260903172005 | 72 | 135 | 1.0 | 3.0 | 0.00 | 0.00 | 0.00 | 60 | 1015.2 |
| 20260903171510 | 72 | 135 | 1.0 | 3.0 | 0.00 | 0.00 | 0.00 | 60 | 1015.2 |
| 20260903171009 | 72 | 135 | 1.0 | 3.0 | 0.00 | 0.00 | 0.00 | 60 | 1015.3 |
| 20260903170529 | 72 | 158 | 1.0 | 2.0 | 0.00 | 0.00 | 0.00 | 60 | 1015.3 |
| 20260903170004 | 72 | 135 | 1.0 | 2.0 | 0.00 | 0.00 | 0.00 | 62 | 1015.4 |
| 20260903165504 | 72 | 113 | 1.0 | 3.0 | 0.00 | 0.00 | 0.00 | 62 | 1015.4 |
| 20260903165024 | 72 | 135 | 1.0 | 3.0 | 0.00 | 0.00 | 0.00 | 62 | 1015.4 |
| 20260903164504 | 72 | 180 | 1.0 | 3.0 | 0.00 | 0.00 | 0.00 | 62 | 1015.4 |
| 20260903164004 | 71 | 180 | 1.0 | 4.0 | 0.00 | 0.00 | 0.00 | 62 | 1015.4 |
| 20260903163529 | 71 | 113 | 1.0 | 4.0 | 0.00 | 0.00 | 0.00 | 65 | 1015.5 |
| 20260903163004 | 70 | 135 | 1.0 | 2.0 | 0.00 | 0.00 | 0.00 | 66 | 1015.6 |
| 20260903162504 | 69 | 135 | 1.0 | 2.0 | 0.00 | 0.00 | 0.00 | 67 | 1015.7 |
| 20260903162025 | 69 | 135 | 1.0 | 3.0 | 0.00 | 0.00 | 0.00 | 68 | 1015.6 |
| 20260903161509 | 68 | 180 | 1.0 | 3.0 | 0.00 | 0.00 | 0.00 | 69 | 1015.6 |
| 20260903161030 | 68 | 180 | 2.0 | 4.0 | 0.00 | 0.00 | 0.00 | 70 | 1015.6 |
| 20260903160529 | 67 | 180 | 1.0 | 2.0 | 0.00 | 0.00 | 0.00 | 72 | 1015.8 |
| 20260903160004 | 67 | 158 | 1.0 | 4.0 | 0.00 | 0.00 | 0.00 | 73 | 1015.8 |
| 20260903155529 | 66 | 135 | 1.0 | 3.0 | 0.00 | 0.00 | 0.00 | 74 | 1015.8 |
| 20260903155004 | 65 | 158 | 2.0 | 4.0 | 0.00 | 0.00 | 0.00 | 76 | 1015.7 |
| 20260903154509 | 65 | 135 | 1.0 | 3.0 | 0.00 | 0.00 | 0.00 | 78 | 1015.7 |
| 20260903154004 | 64 | 135 | 1.0 | 3.0 | 0.00 | 0.00 | 0.00 | 78 | 1015.8 |
| 20260903153505 | 64 | 135 | 1.0 | 2.0 | 0.00 | 0.00 | 0.00 | 79 | 1015.9 |
| 20260903153004 | 63 | 135 | 1.0 | 3.0 | 0.00 | 0.00 | 0.00 | 79 | 1015.9 |
| 20260903152504 | 63 | 180 | 1.0 | 3.0 | 0.00 | 0.00 | 0.00 | 79 | 1016.0 |
| 20260903152004 | 62 | 180 | 1.0 | 3.0 | 0.00 | 0.00 | 0.00 | 80 | 1016.1 |
| 20260903151504 | 62 | 158 | 1.0 | 2.0 | 0.00 | 0.00 | 0.00 | 80 | 1016.0 |
| 20260903151004 | 61 | 135 | 1.0 | 1.0 | 0.00 | 0.00 | 0.00 | 82 | 1016.1 |
| 20260903150504 | 59 | 180 | 1.0 | 2.0 | 0.00 | 0.00 | 0.00 | 87 | 1015.9 |
| 20260903150004 | 58 | 203 | 1.0 | 2.0 | 0.00 | 0.00 | 0.00 | 89 | 1015.9 |
| 20260903145504 | 57 | 158 | 1.0 | 2.0 | 0.00 | 0.00 | 0.00 | 89 | 1016.0 |
| 20260903145024 | 57 | 135 | 1.0 | 2.0 | 0.00 | 0.00 | 0.00 | 90 | 1016.0 |
| 20260903144509 | 56 | 135 | 1.0 | 2.0 | 0.00 | 0.00 | 0.00 | 90 | 1016.0 |
| 20260903144009 | 56 | 135 | 1.0 | 2.0 | 0.00 | 0.00 | 0.00 | 90 | 1016.1 |
| 20260903143504 | 56 | 158 | 1.0 | 3.0 | 0.00 | 0.00 | 0.00 | 90 | 1016.0 |
| 20260903143005 | 55 | 135 | 1.0 | 3.0 | 0.00 | 0.00 | 0.00 | 90 | 1016.0 |
| 20260903142504 | 55 | 0.0 | 1.0 | 0.00 | 0.00 | 0.00 | 90 | 1015.9 | |
| 20260903142004 | 55 | 0.0 | 2.0 | 0.00 | 0.00 | 0.00 | 89 | 1015.8 | |
| 20260903141504 | 55 | 0.0 | 1.0 | 0.00 | 0.00 | 0.00 | 89 | 1015.9 | |
| 20260903141004 | 54 | 0.0 | 1.0 | 0.00 | 0.00 | 0.00 | 89 | 1015.8 | |
| 20260903140504 | 54 | 0.0 | 1.0 | 0.00 | 0.00 | 0.00 | 89 | 1016.0 | |
| 20260903140004 | 54 | 0.0 | 1.0 | 0.00 | 0.00 | 0.00 | 89 | 1015.9 | |
| 20260903135509 | 54 | 0.0 | 1.0 | 0.00 | 0.00 | 0.00 | 88 | 1015.8 | |
| 20260903135024 | 54 | 0.0 | 1.0 | 0.00 | 0.00 | 0.00 | 88 | 1015.9 | |
| 20260903134504 | 54 | 0.0 | 1.0 | 0.00 | 0.00 | 0.00 | 88 | 1015.7 | |
| 20260903134004 | 54 | 0.0 | 1.0 | 0.00 | 0.00 | 0.00 | 88 | 1015.7 | |
| 20260903133504 | 54 | 0.0 | 1.0 | 0.00 | 0.00 | 0.00 | 88 | 1015.7 | |
| 20260903133004 | 54 | 0.0 | 1.0 | 0.00 | 0.00 | 0.00 | 88 | 1015.7 | |
| 20260903132504 | 54 | 0.0 | 1.0 | 0.00 | 0.00 | 0.00 | 88 | 1015.8 | |
| 20260903132004 | 54 | 0.0 | 1.0 | 0.00 | 0.00 | 0.00 | 88 | 1015.7 | |
| 20260903131504 | 54 | 0.0 | 1.0 | 0.00 | 0.00 | 0.00 | 88 | 1015.7 | |
| 20260903131004 | 54 | 0.0 | 0.0 | 0.00 | 0.00 | 0.00 | 88 | 1015.6 | |
| 20260903130504 | 54 | 0.0 | 1.0 | 0.00 | 0.00 | 0.00 | 88 | 1015.7 | |
| 20260903130004 | 54 | 0.0 | 1.0 | 0.00 | 0.00 | 0.00 | 88 | 1015.6 | |
| 20260903125504 | 54 | 0.0 | 0.0 | 0.00 | 0.00 | 0.00 | 88 | 1015.6 | |
| 20260903125004 | 54 | 0.0 | 1.0 | 0.00 | 0.00 | 0.00 | 88 | 1015.6 | |
| 20260903124524 | 54 | 0.0 | 1.0 | 0.00 | 0.00 | 0.00 | 88 | 1015.7 | |
| 20260903124004 | 54 | 0.0 | 1.0 | 0.00 | 0.00 | 0.00 | 88 | 1015.6 | |
| 20260903123509 | 54 | 0.0 | 1.0 | 0.00 | 0.00 | 0.00 | 88 | 1015.8 | |
| 20260903123004 | 54 | 0.0 | 1.0 | 0.00 | 0.00 | 0.00 | 88 | 1015.8 | |
| 20260903122504 | 54 | 0.0 | 0.0 | 0.00 | 0.00 | 0.00 | 87 | 1015.7 | |
| 20260903122004 | 54 | 0.0 | 0.0 | 0.00 | 0.00 | 0.00 | 87 | 1015.7 | |
| 20260903121504 | 54 | 0.0 | 1.0 | 0.00 | 0.00 | 0.00 | 87 | 1015.8 | |
| 20260903121004 | 54 | 0.0 | 0.0 | 0.00 | 0.00 | 0.00 | 87 | 1015.7 | |
| 20260903120524 | 54 | 0.0 | 1.0 | 0.00 | 0.00 | 0.00 | 87 | 1015.9 | |
| 20260903120004 | 54 | 0.0 | 1.0 | 0.00 | 0.00 | 0.00 | 87 | 1015.9 | |
| 20260903115504 | 54 | 0.0 | 1.0 | 0.00 | 0.00 | 0.00 | 87 | 1015.9 | |
| 20260903115003 | 54 | 0.0 | 1.0 | 0.00 | 0.00 | 0.00 | 86 | 1016.0 | |
| 20260903114605 | 54 | 0.0 | 1.0 | 0.00 | 0.00 | 0.00 | 86 | 1016.0 | |
| 20260903114004 | 55 | 0.0 | 1.0 | 0.00 | 0.00 | 0.00 | 86 | 1015.9 | |
| 20260903113503 | 55 | 0.0 | 1.0 | 0.00 | 0.00 | 0.00 | 86 | 1016.1 | |
| 20260903113004 | 55 | 0.0 | 1.0 | 0.00 | 0.00 | 0.00 | 86 | 1016.1 | |
| 20260903112504 | 55 | 0.0 | 1.0 | 0.00 | 0.00 | 0.00 | 86 | 1016.2 | |
| 20260903112009 | 55 | 0.0 | 1.0 | 0.00 | 0.00 | 0.00 | 86 | 1016.2 | |
| 20260903111504 | 55 | 0.0 | 1.0 | 0.00 | 0.00 | 0.00 | 85 | 1016.3 | |
| 20260903111003 | 55 | 0.0 | 1.0 | 0.00 | 0.00 | 0.00 | 85 | 1016.3 | |
| 20260903110504 | 55 | 0.0 | 1.0 | 0.00 | 0.00 | 0.00 | 85 | 1016.3 | |
| 20260903110008 | 55 | 0.0 | 1.0 | 0.00 | 0.00 | 0.00 | 85 | 1016.3 | |
| 20260903105524 | 55 | 0.0 | 1.0 | 0.00 | 0.00 | 0.00 | 86 | 1016.3 | |
| 20260903105004 | 56 | 0.0 | 1.0 | 0.00 | 0.00 | 0.00 | 86 | 1016.4 | |
| 20260903104504 | 56 | 0.0 | 1.0 | 0.00 | 0.00 | 0.00 | 86 | 1016.4 | |
| 20260903104008 | 56 | 0.0 | 1.0 | 0.00 | 0.00 | 0.00 | 86 | 1016.4 | |
| 20260903103523 | 56 | 0.0 | 1.0 | 0.00 | 0.00 | 0.00 | 86 | 1016.4 | |
| 20260903103029 | 56 | 0.0 | 1.0 | 0.00 | 0.00 | 0.00 | 86 | 1016.4 | |
| 20260903102510 | 56 | 0.0 | 1.0 | 0.00 | 0.00 | 0.00 | 86 | 1016.4 | |
| 20260903102003 | 56 | 0.0 | 1.0 | 0.00 | 0.00 | 0.00 | 86 | 1016.3 | |
| 20260903101504 | 56 | 0.0 | 1.0 | 0.00 | 0.00 | 0.00 | 85 | 1016.4 | |
| 20260903101003 | 56 | 0.0 | 1.0 | 0.00 | 0.00 | 0.00 | 85 | 1016.4 | |
| 20260903100508 | 56 | 0.0 | 1.0 | 0.00 | 0.00 | 0.00 | 85 | 1016.3 | |
| 20260903100044 | 56 | 0.0 | 1.0 | 0.00 | 0.00 | 0.00 | 85 | 1016.4 | |
| 20260903095503 | 56 | 0.0 | 1.0 | 0.00 | 0.00 | 0.00 | 85 | 1016.4 | |
| 20260903095003 | 56 | 0.0 | 1.0 | 0.00 | 0.00 | 0.00 | 85 | 1016.5 | |
| 20260903094509 | 56 | 0.0 | 1.0 | 0.00 | 0.00 | 0.00 | 85 | 1016.5 | |
| 20260903094003 | 56 | 0.0 | 1.0 | 0.00 | 0.00 | 0.00 | 85 | 1016.5 | |
| 20260903093503 | 56 | 0.0 | 1.0 | 0.00 | 0.00 | 0.00 | 85 | 1016.6 | |
| 20260903093008 | 56 | 0.0 | 1.0 | 0.00 | 0.00 | 0.00 | 84 | 1016.7 | |
| 20260903092528 | 56 | 0.0 | 1.0 | 0.00 | 0.00 | 0.00 | 84 | 1016.7 | |
| 20260903092024 | 56 | 0.0 | 1.0 | 0.00 | 0.00 | 0.00 | 84 | 1016.8 | |
| 20260903091523 | 57 | 0.0 | 1.0 | 0.00 | 0.00 | 0.00 | 84 | 1016.8 | |
| 20260903091003 | 57 | 0.0 | 1.0 | 0.00 | 0.00 | 0.00 | 84 | 1016.8 | |
| 20260903090503 | 57 | 0.0 | 1.0 | 0.00 | 0.00 | 0.00 | 84 | 1016.9 | |
| 20260903090004 | 57 | 0.0 | 1.0 | 0.00 | 0.00 | 0.00 | 84 | 1017.0 | |
| 20260903085503 | 57 | 0.0 | 1.0 | 0.00 | 0.00 | 0.00 | 84 | 1016.9 | |
| 20260903085008 | 57 | 0.0 | 1.0 | 0.00 | 0.00 | 0.00 | 83 | 1017.0 | |
| 20260903084503 | 57 | 0.0 | 1.0 | 0.00 | 0.00 | 0.00 | 83 | 1016.9 | |
| 20260903084024 | 57 | 0.0 | 1.0 | 0.00 | 0.00 | 0.00 | 83 | 1016.9 | |
| 20260903083523 | 57 | 0.0 | 1.0 | 0.00 | 0.00 | 0.00 | 83 | 1017.0 | |
| 20260903083008 | 57 | 0.0 | 1.0 | 0.00 | 0.00 | 0.00 | 83 | 1017.0 | |
| 20260903082503 | 58 | 0.0 | 0.0 | 0.00 | 0.00 | 0.00 | 83 | 1016.9 | |
| 20260903082003 | 58 | 0.0 | 1.0 | 0.00 | 0.00 | 0.00 | 83 | 1017.0 | |
| 20260903081528 | 58 | 0.0 | 1.0 | 0.00 | 0.00 | 0.00 | 83 | 1017.1 | |
| 20260903081008 | 58 | 0.0 | 1.0 | 0.00 | 0.00 | 0.00 | 83 | 1017.0 | |
| 20260903080528 | 58 | 0.0 | 1.0 | 0.00 | 0.00 | 0.00 | 83 | 1017.1 | |
| 20260903080004 | 58 | 0.0 | 1.0 | 0.00 | 0.00 | 0.00 | 83 | 1017.0 | |
| 20260903075503 | 58 | 0.0 | 1.0 | 0.00 | 0.00 | 0.00 | 83 | 1017.0 | |
| 20260903075008 | 58 | 0.0 | 1.0 | 0.00 | 0.00 | 0.00 | 83 | 1016.8 | |
| 20260903074503 | 59 | 0.0 | 1.0 | 0.00 | 0.00 | 0.00 | 83 | 1016.8 | |
| 20260903074023 | 59 | 0.0 | 1.0 | 0.00 | 0.00 | 0.00 | 83 | 1016.8 | |
| 20260903073508 | 59 | 0.0 | 1.0 | 0.00 | 0.00 | 0.00 | 83 | 1016.9 | |
| 20260903073008 | 59 | 0.0 | 0.0 | 0.00 | 0.00 | 0.00 | 83 | 1016.7 | |
| 20260903072503 | 59 | 0.0 | 1.0 | 0.00 | 0.00 | 0.00 | 83 | 1016.7 | |
| 20260903072003 | 59 | 0.0 | 1.0 | 0.00 | 0.00 | 0.00 | 83 | 1016.7 | |
| 20260903071508 | 60 | 0.0 | 0.0 | 0.00 | 0.00 | 0.00 | 83 | 1016.7 | |
| 20260903071003 | 60 | 0.0 | 1.0 | 0.00 | 0.00 | 0.00 | 83 | 1016.8 | |
| 20260903070503 | 60 | 0.0 | 1.0 | 0.00 | 0.00 | 0.00 | 83 | 1016.7 | |
| 20260903070005 | 60 | 0.0 | 1.0 | 0.00 | 0.00 | 0.00 | 83 | 1016.7 | |
| 20260903065528 | 60 | 0.0 | 0.0 | 0.00 | 0.00 | 0.00 | 82 | 1016.8 | |
| 20260903065003 | 60 | 0.0 | 1.0 | 0.00 | 0.00 | 0.00 | 82 | 1016.9 | |
| 20260903064508 | 60 | 0.0 | 1.0 | 0.00 | 0.00 | 0.00 | 82 | 1016.7 | |
| 20260903064003 | 61 | 0.0 | 1.0 | 0.00 | 0.00 | 0.00 | 82 | 1016.8 | |
| 20260903063503 | 61 | 0.0 | 1.0 | 0.00 | 0.00 | 0.00 | 81 | 1016.8 | |
| 20260903063005 | 61 | 0.0 | 1.0 | 0.00 | 0.00 | 0.00 | 82 | 1016.8 | |
| 20260903062510 | 61 | 0.0 | 1.0 | 0.00 | 0.00 | 0.00 | 82 | 1016.9 | |
| 20260903062005 | 61 | 0.0 | 1.0 | 0.00 | 0.00 | 0.00 | 82 | 1016.8 | |
| 20260903061505 | 61 | 0.0 | 1.0 | 0.00 | 0.00 | 0.00 | 81 | 1016.8 | |
| 20260903061010 | 61 | 0.0 | 1.0 | 0.00 | 0.00 | 0.00 | 81 | 1016.8 | |
| 20260903060550 | 62 | 0.0 | 1.0 | 0.00 | 0.00 | 0.00 | 81 | 1016.8 | |
| 20260903060005 | 62 | 0.0 | 1.0 | 0.00 | 0.00 | 0.00 | 80 | 1016.9 | |
| 20260903055505 | 62 | 0.0 | 1.0 | 0.00 | 0.00 | 0.00 | 80 | 1016.9 | |
| 20260903055005 | 62 | 0.0 | 1.0 | 0.00 | 0.00 | 0.00 | 79 | 1016.9 | |
| 20260903054505 | 62 | 0.0 | 1.0 | 0.00 | 0.00 | 0.00 | 80 | 1017.0 | |
| 20260903054025 | 62 | 0.0 | 1.0 | 0.00 | 0.00 | 0.00 | 79 | 1017.0 | |
| 20260903053505 | 62 | 0.0 | 1.0 | 0.00 | 0.00 | 0.00 | 79 | 1017.0 | |
| 20260903053010 | 62 | 0.0 | 1.0 | 0.00 | 0.00 | 0.00 | 79 | 1017.0 | |
| 20260903052505 | 62 | 0.0 | 2.0 | 0.00 | 0.00 | 0.00 | 79 | 1017.0 | |
| 20260903052010 | 62 | 23 | 1.0 | 2.0 | 0.00 | 0.00 | 0.00 | 78 | 1017.0 |
| 20260903051509 | 63 | 315 | 1.0 | 2.0 | 0.00 | 0.00 | 0.00 | 78 | 1017.0 |
| 20260903051025 | 63 | 0.0 | 1.0 | 0.00 | 0.00 | 0.00 | 77 | 1017.0 | |
| 20260903050505 | 63 | 0.0 | 2.0 | 0.00 | 0.00 | 0.00 | 77 | 1017.2 | |
| 20260903050009 | 63 | 0 | 1.0 | 2.0 | 0.00 | 0.00 | 0.00 | 77 | 1017.1 |
| 20260903045509 | 63 | 0 | 1.0 | 3.0 | 0.00 | 0.00 | 0.00 | 77 | 1017.1 |
| 20260903045009 | 63 | 23 | 1.0 | 4.0 | 0.00 | 0.00 | 0.00 | 77 | 1017.2 |
| 20260903044505 | 63 | 0 | 1.0 | 2.0 | 0.00 | 0.00 | 0.00 | 76 | 1017.2 |
| 20260903044004 | 63 | 0.0 | 1.0 | 0.00 | 0.00 | 0.00 | 76 | 1017.1 | |
| 20260903043509 | 63 | 0.0 | 1.0 | 0.00 | 0.00 | 0.00 | 75 | 1017.1 | |
| 20260903043009 | 63 | 0.0 | 1.0 | 0.00 | 0.00 | 0.00 | 74 | 1017.1 | |
| 20260903042505 | 63 | 0.0 | 1.0 | 0.00 | 0.00 | 0.00 | 74 | 1017.1 | |
| 20260903042005 | 64 | 0.0 | 1.0 | 0.00 | 0.00 | 0.00 | 73 | 1017.1 | |
| 20260903041524 | 64 | 0.0 | 1.0 | 0.00 | 0.00 | 0.00 | 72 | 1016.9 | |
| 20260903041004 | 64 | 0.0 | 1.0 | 0.00 | 0.00 | 0.00 | 71 | 1016.9 | |
| 20260903040509 | 64 | 0.0 | 1.0 | 0.00 | 0.00 | 0.00 | 71 | 1016.8 | |
| 20260903040009 | 64 | 0.0 | 1.0 | 0.00 | 0.00 | 0.00 | 70 | 1016.7 | |
| 20260903035505 | 65 | 0.0 | 1.0 | 0.00 | 0.00 | 0.00 | 70 | 1016.7 | |
| 20260903035005 | 65 | 0.0 | 1.0 | 0.00 | 0.00 | 0.00 | 70 | 1016.7 | |
| 20260903034505 | 65 | 0.0 | 1.0 | 0.00 | 0.00 | 0.00 | 69 | 1016.7 | |
| 20260903034008 | 65 | 0.0 | 1.0 | 0.00 | 0.00 | 0.00 | 69 | 1016.5 | |
| 20260903033530 | 66 | 0.0 | 1.0 | 0.00 | 0.00 | 0.00 | 68 | 1016.5 | |
| 20260903033005 | 66 | 0.0 | 2.0 | 0.00 | 0.00 | 0.00 | 68 | 1016.3 | |
| 20260903032504 | 66 | 0.0 | 1.0 | 0.00 | 0.00 | 0.00 | 68 | 1016.4 | |
| 20260903032005 | 66 | 0.0 | 1.0 | 0.00 | 0.00 | 0.00 | 67 | 1016.3 | |
| 20260903031504 | 66 | 0.0 | 1.0 | 0.00 | 0.00 | 0.00 | 67 | 1016.5 | |
| 20260903031009 | 67 | 0 | 1.0 | 3.0 | 0.00 | 0.00 | 0.00 | 66 | 1016.3 |
| 20260903030509 | 67 | 338 | 1.0 | 2.0 | 0.00 | 0.00 | 0.00 | 66 | 1016.3 |
| 20260903030005 | 67 | 338 | 1.0 | 4.0 | 0.00 | 0.00 | 0.00 | 65 | 1016.3 |
| 20260903025510 | 68 | 338 | 1.0 | 3.0 | 0.00 | 0.00 | 0.00 | 64 | 1016.1 |
| 20260903025045 | 68 | 0 | 1.0 | 2.0 | 0.00 | 0.00 | 0.00 | 63 | 1016.1 |
| 20260903024509 | 69 | 338 | 1.0 | 2.0 | 0.00 | 0.00 | 0.00 | 62 | 1016.3 |
| 20260903024009 | 69 | 315 | 1.0 | 2.0 | 0.00 | 0.00 | 0.00 | 61 | 1016.1 |
| 20260903023509 | 70 | 338 | 1.0 | 3.0 | 0.00 | 0.00 | 0.00 | 60 | 1016.2 |
| 20260903023004 | 70 | 338 | 1.0 | 3.0 | 0.00 | 0.00 | 0.00 | 60 | 1016.1 |
| 20260903022509 | 71 | 338 | 1.0 | 3.0 | 0.00 | 0.00 | 0.00 | 58 | 1016.0 |
| 20260903022009 | 72 | 315 | 1.0 | 4.0 | 0.00 | 0.00 | 0.00 | 56 | 1016.0 |
| 20260903021509 | 72 | 315 | 1.0 | 2.0 | 0.00 | 0.00 | 0.00 | 54 | 1016.0 |
| 20260903021009 | 73 | 315 | 1.0 | 3.0 | 0.00 | 0.00 | 0.00 | 54 | 1016.1 |
| 20260903020529 | 73 | 0.0 | 1.0 | 0.00 | 0.00 | 0.00 | 53 | 1016.0 | |
| 20260903020009 | 74 | 315 | 1.0 | 4.0 | 0.00 | 0.00 | 0.00 | 51 | 1016.2 |
| 20260903015529 | 74 | 315 | 1.0 | 3.0 | 0.00 | 0.00 | 0.00 | 51 | 1016.1 |
| 20260903015004 | 74 | 338 | 1.0 | 4.0 | 0.00 | 0.00 | 0.00 | 48 | 1016.0 |
| 20260903014509 | 75 | 315 | 1.0 | 3.0 | 0.00 | 0.00 | 0.00 | 49 | 1016.1 |
| 20260903014009 | 75 | 315 | 1.0 | 4.0 | 0.00 | 0.00 | 0.00 | 51 | 1016.2 |
| 20260903013505 | 75 | 248 | 1.0 | 2.0 | 0.00 | 0.00 | 0.00 | 48 | 1016.2 |
| 20260903013009 | 75 | 315 | 1.0 | 4.0 | 0.00 | 0.00 | 0.00 | 48 | 1016.1 |
| 20260903012509 | 75 | 315 | 2.0 | 6.0 | 0.00 | 0.00 | 0.00 | 48 | 1016.0 |
| 20260903012004 | 75 | 315 | 2.0 | 5.0 | 0.00 | 0.00 | 0.00 | 48 | 1016.0 |
| 20260903011529 | 75 | 338 | 2.0 | 5.0 | 0.00 | 0.00 | 0.00 | 51 | 1015.9 |
| 20260903011004 | 75 | 315 | 1.0 | 4.0 | 0.00 | 0.00 | 0.00 | 53 | 1016.0 |
| 20260903010544 | 75 | 315 | 2.0 | 4.0 | 0.00 | 0.00 | 0.00 | 53 | 1015.9 |
| 20260903010004 | 75 | 315 | 1.0 | 4.0 | 0.00 | 0.00 | 0.00 | 54 | 1016.1 |
| 20260903005504 | 75 | 338 | 2.0 | 5.0 | 0.00 | 0.00 | 0.00 | 54 | 1015.9 |
| 20260903005004 | 75 | 338 | 2.0 | 6.0 | 0.00 | 0.00 | 0.00 | 54 | 1016.0 |
| 20260903004504 | 75 | 338 | 2.0 | 5.0 | 0.00 | 0.00 | 0.00 | 54 | 1016.1 |
| 20260903004004 | 75 | 338 | 3.0 | 7.0 | 0.00 | 0.00 | 0.00 | 54 | 1015.9 |
| 20260903003504 | 76 | 0 | 2.0 | 5.0 | 0.00 | 0.00 | 0.00 | 53 | 1016.0 |
| 20260903003004 | 76 | 338 | 2.0 | 6.0 | 0.00 | 0.00 | 0.00 | 53 | 1016.1 |
| 20260903002524 | 77 | 0 | 1.0 | 5.0 | 0.00 | 0.00 | 0.00 | 53 | 1016.0 |
| 20260903002004 | 77 | 315 | 2.0 | 6.0 | 0.00 | 0.00 | 0.00 | 53 | 1016.1 |
| 20260903001544 | 77 | 315 | 2.0 | 6.0 | 0.00 | 0.00 | 0.00 | 52 | 1016.2 |
| 20260903001004 | 78 | 315 | 2.0 | 6.0 | 0.00 | 0.00 | 0.00 | 52 | 1016.2 |
| 20260903000524 | 78 | 293 | 2.0 | 5.0 | 0.00 | 0.00 | 0.00 | 49 | 1016.1 |
| 20260903000004 | 78 | 315 | 2.0 | 7.0 | 0.00 | 0.00 | 0.00 | 50 | 1016.2 |
| 20260902235504 | 78 | 315 | 1.0 | 4.0 | 0.00 | 0.00 | 0.00 | 51 | 1016.1 |
| 20260902235004 | 78 | 315 | 2.0 | 6.0 | 0.00 | 0.00 | 0.00 | 51 | 1016.2 |
| 20260902234504 | 78 | 315 | 2.0 | 5.0 | 0.00 | 0.00 | 0.00 | 52 | 1016.2 |
| 20260902234009 | 78 | 338 | 2.0 | 6.0 | 0.00 | 0.00 | 0.00 | 52 | 1016.3 |
| 20260902233504 | 79 | 0 | 2.0 | 6.0 | 0.00 | 0.00 | 0.00 | 52 | 1016.1 |
| 20260902233024 | 79 | 315 | 2.0 | 6.0 | 0.00 | 0.00 | 0.00 | 51 | 1016.1 |
| 20260902232524 | 79 | 315 | 2.0 | 5.0 | 0.00 | 0.00 | 0.00 | 53 | 1016.1 |
| 20260902232024 | 79 | 315 | 2.0 | 6.0 | 0.00 | 0.00 | 0.00 | 53 | 1016.0 |
| 20260902231509 | 79 | 315 | 2.0 | 5.0 | 0.00 | 0.00 | 0.00 | 53 | 1016.2 |
| 20260902231004 | 78 | 315 | 3.0 | 8.0 | 0.00 | 0.00 | 0.00 | 53 | 1016.1 |
| 20260902230504 | 79 | 315 | 3.0 | 7.0 | 0.00 | 0.00 | 0.00 | 52 | 1016.1 |
| 20260902230024 | 79 | 315 | 3.0 | 7.0 | 0.00 | 0.00 | 0.00 | 52 | 1016.1 |
| 20260902225504 | 80 | 315 | 3.0 | 8.0 | 0.00 | 0.00 | 0.00 | 52 | 1016.2 |
| 20260902225009 | 80 | 315 | 2.0 | 7.0 | 0.00 | 0.00 | 0.00 | 51 | 1016.2 |
| 20260902224504 | 80 | 225 | 3.0 | 9.0 | 0.00 | 0.00 | 0.00 | 52 | 1016.2 |
| 20260902224004 | 80 | 315 | 2.0 | 7.0 | 0.00 | 0.00 | 0.00 | 52 | 1016.3 |
| 20260902223529 | 80 | 315 | 2.0 | 8.0 | 0.00 | 0.00 | 0.00 | 52 | 1016.3 |